This demonstration page uses our WeatherBlox Daily Observations layout. Learn more.

Left ArrowRight Arrow

39.29038, -76.61219

Hourly Observations for January 2, 2021

Temp ( °F °C ) Dew Point ( °F °C ) Humidity (%) Winds ( mph kmh ) Pressure ( in mb ) Visibility ( mi km ) Precip ( " mm )
12:52 am 00:52 Cloudy with Mist and Fog 39 4 37 3 93 93 W 5 7 29.94 1014 2 3 0.01 0.25
12:54 am 00:54 Cloudy with Mist and Fog 39 3.9 37 2.8 93 93 WNW 5 7 29.93 1013 2 3 0.01 0.25
1:54 am 01:54 Cloudy with Mist and Fog 38 3.3 36 2.2 93 93 W 3 6 29.91 1013 3 4 0.00 0.00
2:35 am 02:35 Cloudy with Mist and Fog 38 3.3 36 2.2 93 93 Calm 29.88 1012 4 6 0.00 0.00
2:54 am 02:54 Cloudy with Mist and Fog 38 3.3 37 2.8 97 97 Calm 29.86 1011 4 6 0.00 0.00
3:01 am 03:01 Cloudy with Mist and Fog 38 3.3 37 2.8 97 97 S 3 6 29.86 1011 4 6 0.00 0.00
3:54 am 03:54 Cloudy with Mist and Fog 39 3.9 37 2.8 93 93 SW 3 6 29.84 1010 2 2 0.00 0.00
4:54 am 04:54 Cloudy with Mist and Fog 39 3.9 37 2.8 93 93 WSW 5 7 29.81 1010 2 2 0.00 0.00
5:54 am 05:54 Cloudy with Mist and Fog 40 4.4 38 3.3 93 93 WNW 12 19 29.85 1011 2 3 0.00 0.00
6:24 am 06:24 Cloudy with Mist and Fog 39 3.9 37 2.8 93 93 W 12 19 29.88 1012 6 10 0.00 0.00
6:54 am 06:54 Cloudy 39 3.9 37 2.8 93 93 WSW 6 9 29.87 1012 7 11 0.00 0.00
7:31 am 07:31 Mostly Cloudy 38 3.3 36 2.2 93 93 WSW 3 6 29.89 1012 10 16 0.00 0.00
7:54 am 07:54 Partly Cloudy 39 3.9 36 2.2 89 89 SW 3 6 29.88 1012 10 16 0.00 0.00
8:54 am 08:54 Partly Cloudy 41 5 38 3.3 89 89 SW 7 11 29.90 1013 10 16 0.00 0.00
9:54 am 09:54 Partly Cloudy 46 7.8 40 4.4 79 79 SW 6 9 29.92 1013 10 16 0.00 0.00
10:54 am 10:54 Mostly Cloudy 51 10.6 43 6.1 74 74 SW 8 13 29.93 1014 10 16 0.00 0.00
11:54 am 11:54 Mostly Cloudy 55 12.8 40 4.4 57 57 WNW 15 24 29.93 1014 10 16 0.00 0.00
12:54 pm 12:54 Mostly Cloudy 56 13.3 39 3.9 53 53 WNW 23 37 29.95 1014 10 16 0.00 0.00
1:54 pm 13:54 Mostly Cloudy 55 12.8 39 3.9 55 55 W 20 31 29.97 1015 10 16 0.00 0.00
2:54 pm 14:54 Mostly Cloudy 55 12.8 38 3.3 53 53 W 16 26 29.99 1016 10 16 0.00 0.00
3:54 pm 15:54 Mostly Cloudy 54 12.2 38 3.3 55 55 WNW 13 20 30.03 1017 10 16 0.00 0.00
4:54 pm 16:54 Mostly Cloudy 51 10.6 38 3.3 61 61 WNW 7 11 30.04 1017 10 16 0.00 0.00
5:54 pm 17:54 Mostly Cloudy 50 10 38 3.3 63 63 NW 5 7 30.06 1018 10 16 0.00 0.00
6:54 pm 18:54 Mostly Cloudy 49 9.4 37 2.8 64 64 NNW 3 6 30.08 1019 10 16 0.00 0.00
7:54 pm 19:54 Mostly Cloudy 48 8.9 36 2.2 63 63 N 9 15 30.09 1019 10 16 0.00 0.00
8:54 pm 20:54 Mostly Cloudy 46 7.8 35 1.7 66 66 N 5 7 30.09 1019 10 16 0.00 0.00
9:54 pm 21:54 Mostly Cloudy 44 6.7 34 1.1 68 68 NNE 6 9 30.10 1019 10 16 0.00 0.00
10:54 pm 22:54 Mostly Cloudy 42 5.6 33 0.6 71 71 NE 7 11 30.08 1019 10 16 0.00 0.00
11:54 pm 23:54 Mostly Cloudy 42 5.6 32 0 68 68 NE 7 11 30.06 1018 10 16 0.00 0.00

Powered by AerisWeather